H1 CPF 2 NER 2025 11 9 9 313 01 glonass131 H2 1301901 9131 39155 2025 11 9 0 0 0 2025 11 12 23 45 0 900 1 1 0 0 0 1 H9 10 0 60988 0.00000 0 -18620590.787 -2476613.174 17258161.350 10 0 60988 900.00000 0 -20392562.710 -3376491.885 14935082.780 10 0 60988 1800.00000 0 -21955837.450 -4005963.957 12321675.729 10 0 60988 2700.00000 0 -23252190.052 -4386671.793 9468519.719 10 0 60988 3600.00000 0 -24230974.581 -4551174.340 6430965.463 10 0 60988 4500.00000 0 -24851249.759 -4541331.419 3268064.936 10 0 60988 5400.00000 0 -25083520.547 -4406288.921 41419.603 10 0 60988 6300.00000 0 -24911019.298 -4200150.072 -3186030.390 10 0 60988 7200.00000 0 -24330469.360 -3979432.338 -6351251.209 10 0 60988 8100.00000 0 -23352296.044 -3800419.530 -9392368.349 10 0 60988 9000.00000 0 -22000273.757 -3716523.989 -12249900.826 10 0 60988 9900.00000 0 -20310622.732 -3775773.748 -14867949.763 10 0 60988 10800.00000 0 -18330592.914 -4018534.468 -17195315.527 10 0 60988 11700.00000 0 -16116595.063 -4475565.789 -19186519.201 10 0 60988 12600.00000 0 -13731958.980 -5166497.076 -20802706.452 10 0 60988 13500.00000 0 -11244414.850 -6098789.002 -22012414.846 10 0 60988 14400.00000 0 -8723405.435 -7267226.066 -22792188.936 10 0 60988 15300.00000 0 -6237343.788 -8653961.735 -23127031.169 10 0 60988 16200.00000 0 -3850932.808 -10229113.881 -23010680.487 10 0 60988 17100.00000 0 -1622659.564 -11951884.314 -22445714.417 10 0 60988 18000.00000 0 397430.876 -13772153.777 -21443474.310 10 0 60988 18900.00000 0 2169590.192 -15632483.684 -20023817.102 10 0 60988 19800.00000 0 3665774.634 -17470438.909 -18214700.485 10 0 60988 20700.00000 0 4870549.962 -19221132.794 -16051611.591 10 0 60988 21600.00000 0 5781459.169 -20819886.821 -13576852.244 10 0 60988 22500.00000 0 6408841.516 -22204893.186 -10838696.332 10 0 60988 23400.00000 0 6775114.388 -23319769.083 -7890437.061 10 0 60988 24300.00000 0 6913551.846 -24115896.769 -4789343.615 10 0 60988 25200.00000 0 6866614.329 -24554452.954 -1595548.008 10 0 60988 26100.00000 0 6683902.151 -24608044.551 1629116.104 10 0 60988 27000.00000 0 6419820.430 -24261884.474 4822300.497 10 0 60988 27900.00000 0 6131054.341 -23514460.446 7922333.143 10 0 60988 28800.00000 0 5873960.680 -22377670.705 10869390.832 10 0 60988 29700.00000 0 5701984.574 -20876422.295 13606632.538 10 0 60988 30600.00000 0 5663208.483 -19047709.381 16081273.577 10 0 60988 31500.00000 0 5798134.888 -16939209.918 18245581.787 10 0 60988 32400.00000 0 6137794.153 -14607458.168 20057778.647 10 0 60988 33300.00000 0 6702255.771 -12115667.370 21482829.890 10 0 60988 34200.00000 0 7499604.814 -9531290.733 22493112.041 10 0 60988 35100.00000 0 8525426.710 -6923419.223 23068943.214 10 0 60988 36000.00000 0 9762823.085 -4360121.220 23198968.607 10 0 60988 36900.00000 0 11182960.048 -1905831.593 22880393.163 10 0 60988 37800.00000 0 12746128.835 381103.889 22119056.143 10 0 60988 38700.00000 0 14403277.813 2450628.684 20929344.694 10 0 60988 39600.00000 0 16097955.327 4262829.727 19333946.012 10 0 60988 40500.00000 0 17768585.535 5789368.828 17363440.330 10 0 60988 41400.00000 0 19350984.831 7014430.963 15055739.849 10 0 60988 42300.00000 0 20781015.506 7935148.570 12455381.712 10 0 60988 43200.00000 0 21997266.310 8561482.414 9612686.209 10 0 60988 44100.00000 0 22943647.241 8915562.225 6582794.519 10 0 60988 45000.00000 0 23571788.141 9030513.206 3424603.375 10 0 60988 45900.00000 0 23843137.909 8948816.734 199616.862 10 0 60988 46800.00000 0 23730672.934 8720274.057 -3029261.990 10 0 60988 47700.00000 0 23220139.418 8399659.536 -6198975.046 10 0 60988 48600.00000 0 22310773.918 8044164.134 -9247562.247 10 0 60988 49500.00000 0 21015468.865 7710739.601 -12115397.305 10 0 60988 50400.00000 0 19360373.903 7453458.700 -14746379.139 10 0 60988 51300.00000 0 17383948.597 7321006.414 -17089053.114 10 0 60988 52200.00000 0 15135506.062 7354411.546 -19097637.795 10 0 60988 53100.00000 0 12673309.419 7585117.539 -20732935.154 10 0 60988 54000.00000 0 10062302.329 8033476.352 -21963105.057 10 0 60988 54900.00000 0 7371570.603 8707730.492 -22764288.230 10 0 60988 55800.00000 0 4671643.150 9603526.739 -23121065.503 10 0 60988 56700.00000 0 2031746.892 10703981.799 -23026745.026 10 0 60988 57600.00000 0 -482868.432 11980296.084 -22483473.061 10 0 60988 58500.00000 0 -2813423.406 13392888.175 -21502167.801 10 0 60988 59400.00000 0 -4909816.437 14893000.334 -20102279.459 10 0 60988 60300.00000 0 -6732454.959 16424705.590 -18311383.297 10 0 60988 61200.00000 0 -8253636.233 17927230.271 -16164615.617 10 0 60988 62100.00000 0 -9458423.262 19337493.034 -13703965.594 10 0 60988 63000.00000 0 -10344982.874 20592752.967 -10977438.395 10 0 60988 63900.00000 0 -10924375.759 21633255.397 -8038107.295 10 0 60988 64800.00000 0 -11219811.182 22404764.884 -4943074.183 10 0 60988 65700.00000 0 -11265401.143 22860880.205 -1752359.238 10 0 60988 66600.00000 0 -11104469.207 22965035.852 1472258.498 10 0 60988 67500.00000 0 -10787487.195 22692107.997 4668427.501 10 0 60988 68400.00000 0 -10369727.632 22029559.652 7774414.911 10 0 60988 69300.00000 0 -9908730.982 20978078.873 10730280.532 10 0 60988 70200.00000 0 -9461693.542 19551684.772 13479012.603 10 0 60988 71100.00000 0 -9082884.609 17777297.680 15967605.251 10 0 60988 72000.00000 0 -8821199.734 15693791.531 18148058.856 10 0 60988 72900.00000 0 -8717951.017 13350567.165 19978286.122 10 0 60988 73800.00000 0 -8804985.498 10805704.356 21422908.361 10 0 60988 74700.00000 0 -9103209.379 8123767.136 22453928.298 10 0 60988 75600.00000 0 -9621579.397 5373350.699 23051267.665 10 0 60988 76500.00000 0 -10356603.975 2624468.572 23203159.902 10 0 60988 77400.00000 0 -11292376.287 -54114.682 22906390.337 10 0 60988 78300.00000 0 -12401140.003 -2597497.448 22166378.492 10 0 60988 79200.00000 0 -13644366.873 -4947095.612 20997099.477 10 0 60988 80100.00000 0 -14974304.236 -7052837.254 19420843.943 10 0 60988 81000.00000 0 -16335930.994 -8875007.006 17467818.720 10 0 60988 81900.00000 0 -17669243.109 -10385663.067 15175593.096 10 0 60988 82800.00000 0 -18911775.109 -11569566.833 12588398.716 10 0 60988 83700.00000 0 -20001253.224 -12424584.742 9756294.106 10 0 60988 84600.00000 0 -20878268.977 -12961543.688 6734207.993 10 0 60988 85500.00000 0 -21488859.943 -13203544.231 3580878.657 10 0 60989 0.00000 0 -21786887.045 -13184759.042 357709.653 10 0 60989 900.00000 0 -21736105.558 -12948766.284 -2872437.288 10 0 60989 1800.00000 0 -21311838.798 -12546488.326 -6046483.134 10 0 60989 2700.00000 0 -20502180.928 -12033823.706 -9102385.990 10 0 60989 3600.00000 0 -19308674.340 -11469074.196 -11980377.945 10 0 60989 4500.00000 0 -17746430.503 -10910278.367 -14624159.244 10 0 60989 5400.00000 0 -15843687.154 -10412567.395 -16982023.547 10 0 60989 6300.00000 0 -13640819.444 -10025658.101 -19007889.845 10 0 60989 7200.00000 0 -11188846.544 -9791592.147 -20662218.857 10 0 60989 8100.00000 0 -8547497.215 -9742819.433 -21912794.610 10 0 60989 9000.00000 0 -5782916.846 -9900708.303 -22735355.197 10 0 60989 9900.00000 0 -2965113.735 -10274546.314 -23114060.323 10 0 60989 10800.00000 0 -165253.187 -10861073.611 -23041787.174 10 0 60989 11700.00000 0 2547086.118 -11644567.647 -22520249.949 10 0 60989 12600.00000 0 5106578.078 -12597474.075 -21559942.373 10 0 60989 13500.00000 0 7454626.159 -13681555.147 -20179906.171 10 0 60989 14400.00000 0 9541548.998 -14849505.037 -18407332.078 10 0 60989 15300.00000 0 11328385.189 -16046961.884 -16277003.170 10 0 60989 16200.00000 0 12788244.577 -17214830.024 -13830593.350 10 0 60989 17100.00000 0 13907152.961 -18291813.348 -11115836.256 10 0 60989 18000.00000 0 14684358.575 -19217052.470 -8185582.270 10 0 60989 18900.00000 0 15132091.442 -19932754.774 -5096762.921 10 0 60989 19800.00000 0 15274789.379 -20386707.406 -1909283.450 10 0 60989 20700.00000 0 15147826.350 -20534568.766 1315134.799 10 0 60989 21600.00000 0 14795799.126 -20341843.909 4514139.995 10 0 60989 22500.00000 0 14270445.886 -19785462.724 7625941.259 10 0 60989 23400.00000 0 13628284.977 -18854896.516 10590484.002 10 0 60989 24300.00000 0 12928072.893 -17552767.692 13350588.019 10 0 60989 25200.00000 0 12228187.286 -15894928.018 15853028.220 10 0 60989 26100.00000 0 11584043.360 -13910002.475 18049539.143 10 0 60989 27000.00000 0 11045650.148 -11638417.214 19897725.978 10 0 60989 27900.00000 0 10655407.240 -9130950.696 21361866.507 10 0 60989 28800.00000 0 10446232.598 -6446866.186 22413590.200 10 0 60989 29700.00000 0 10440098.740 -3651700.371 23032422.621 10 0 60989 30600.00000 0 10647038.142 -814796.664 23206185.365 10 0 60989 31500.00000 0 11064659.980 1993317.784 22931243.792 10 0 60989 32400.00000 0 11678199.746 4703605.800 22212597.108 10 0 60989 33300.00000 0 12461101.839 7251136.493 21063807.612 10 0 60989 34200.00000 0 13376113.441 9577537.560 19506768.475 10 0 60989 35100.00000 0 14376846.873 11633182.954 17571312.042 10 0 60989 36000.00000 0 15409747.872 13379025.146 15294663.466 10 0 60989 36900.00000 0 16416389.752 14787995.003 12720747.504 10 0 60989 37800.00000 0 17335998.806 15845909.483 9899359.354 10 0 60989 38700.00000 0 18108105.594 16551847.369 6885213.527 10 0 60989 39600.00000 0 18675210.125 16917975.253 3736887.870 10 0 60989 40500.00000 0 18985347.184 16968829.282 515682.640 10 0 60989 41400.00000 0 18994441.179 16740081.529 -2715582.925 10 0 60989 42300.00000 0 18668347.943 16276842.366 -5893811.953 10 0 60989 43200.00000 0 17984493.755 15631570.768 -8956883.241 10 0 60989 44100.00000 0 16933038.796 14861681.969 -11844889.762 10 0 60989 45000.00000 0 15517512.692 14026955.622 -14501335.516 10 0 60989 45900.00000 0 13754892.760 13186856.600 -16874264.744 10 0 60989 46800.00000 0 11675119.885 12397884.652 -18917298.996 10 0 60989 47700.00000 0 9320071.643 11711067.826 -20590559.709 10 0 60989 48600.00000 0 6742035.928 11169708.077 -21861456.864 10 0 60989 49500.00000 0 4001749.993 10807476.189 -22705327.519 10 0 60989 50400.00000 0 1166088.533 10646937.452 -23105911.650 10 0 60989 51300.00000 0 -1694500.864 10698570.411 -23055656.584 10 0 60989 52200.00000 0 -4508706.142 10960319.274 -22555845.238 10 0 60989 53100.00000 0 -7207088.864 11417697.233 -21616547.234 10 0 60989 54000.00000 0 -9724737.167 12044434.161 -20256395.743 10 0 60989 54900.00000 0 -12003723.273 12803638.870 -18502196.423 10 0 60989 55800.00000 0 -13995264.197 13649424.364 -16388378.155 10 0 60989 56700.00000 0 -15661497.562 14528925.244 -13956298.187 10 0 60989 57600.00000 0 -16976801.223 15384620.336 -11253416.926 10 0 60989 58500.00000 0 -17928604.879 16156861.350 -8332359.895 10 0 60989 59400.00000 0 -18517663.450 16786500.419 -5249886.103 10 0 60989 60300.00000 0 -18757784.439 17217505.975 -2065783.530 10 0 60989 61200.00000 0 -18675024.114 17399457.556 1158286.623 10 0 60989 62100.00000 0 -18306389.083 17289815.874 4359974.774 10 0 60989 63000.00000 0 -17698099.865 16855874.303 7477434.679 10 0 60989 63900.00000 0 -16903490.540 16076311.521 10450500.093 10 0 60989 64800.00000 0 -15980632.939 14942281.729 13221825.151 10 0 60989 65700.00000 0 -14989784.481 13457997.916 15737968.341 10 0 60989 66600.00000 0 -13990765.380 11640784.288 17950401.106 10 0 60989 67500.00000 0 -13040373.326 9520595.448 19816423.748 10 0 60989 68400.00000 0 -12189941.870 7139021.265 21299972.984 10 0 60989 69300.00000 0 -11483142.670 4547816.946 22372307.248 10 0 60989 70200.00000 0 -10954121.900 1807016.774 23012557.862 10 0 60989 71100.00000 0 -10626047.635 -1017293.376 23208136.165 10 0 60989 72000.00000 0 -10510128.648 -3855455.741 22954988.762 10 0 60989 72900.00000 0 -10605146.205 -6636873.193 22257695.341 10 0 60989 73800.00000 0 -10897519.803 -9292688.527 21129405.750 10 0 60989 74700.00000 0 -11361906.224 -11758401.775 19591615.586 10 0 60989 75600.00000 0 -11962309.345 -13976318.563 17673782.147 10 0 60989 76500.00000 0 -12653656.944 -15897728.392 15412785.430 10 0 60989 77400.00000 0 -13383780.802 -17484721.888 12852241.847 10 0 60989 78300.00000 0 -14095718.954 -18711570.080 10041681.399 10 0 60989 79200.00000 0 -14730244.354 -19565606.295 7035602.147 10 0 60989 80100.00000 0 -15228513.619 -20047571.599 3892418.949 10 0 60989 81000.00000 0 -15534723.187 -20171407.127 673326.204 10 0 60989 81900.00000 0 -15598658.804 -19963500.227 -2558903.013 10 0 60989 82800.00000 0 -15378027.770 -19461414.902 -5741157.013 10 0 60989 83700.00000 0 -14840471.997 -18712159.727 -8811238.772 10 0 60989 84600.00000 0 -13965173.118 -17770066.825 -11709105.749 10 0 60989 85500.00000 0 -12743978.335 -16694372.920 -14378069.335 10 0 60990 0.00000 0 -11181996.555 -15546606.881 -16765927.723 10 0 60990 900.00000 0 -9297636.433 -14387896.109 -18826008.809 10 0 60990 1800.00000 0 -7122085.440 -13276309.868 -20518097.544 10 0 60990 2700.00000 0 -4698248.574 -12264352.232 -21809232.417 10 0 60990 3600.00000 0 -2079193.605 -11396714.018 -22674351.447 10 0 60990 4500.00000 0 673831.697 -10708379.246 -23096776.231 10 0 60990 5400.00000 0 3493725.784 -10223166.403 -23068524.961 10 0 60990 6300.00000 0 6310104.213 -9952765.395 -22590449.374 10 0 60990 7200.00000 0 9052006.404 -9896309.286 -21672194.534 10 0 60990 8100.00000 0 11650624.381 -10040496.619 -20331984.088 10 0 60990 9000.00000 0 14041939.444 -10360256.457 -18596237.207 10 0 60990 9900.00000 0 16169157.296 -10819925.172 -16499026.732 10 0 60990 10800.00000 0 17984841.443 -11374882.497 -14081391.027 10 0 60990 11700.00000 0 19452658.059 -11973575.385 -11390514.663 10 0 60990 12600.00000 0 20548662.238 -12559842.301 -8478795.352 10 0 60990 13500.00000 0 21262075.245 -13075438.711 -5402816.342 10 0 60990 14400.00000 0 21595523.714 -13462656.732 -2222244.901 10 0 60990 15300.00000 0 21564734.219 -13666928.760 1001321.471 10 0 60990 16200.00000 0 21197699.023 -13639306.243 4205538.988 10 0 60990 17100.00000 0 20533350.410 -13338710.576 7328509.462 10 0 60990 18000.00000 0 19619800.763 -12733863.042 10309958.152 10 0 60990 18900.00000 0 18512222.906 -11804814.284 13092376.380 10 0 60990 19800.00000 0 17270459.320 -10544010.458 15622108.655 10 0 60990 20700.00000 0 15956459.379 -8956852.208 17850365.344 10 0 60990 21600.00000 0 14631650.192 -7061723.166 19734143.465 10 0 60990 22500.00000 0 13354348.948 -4889486.052 21237039.835 10 0 60990 23400.00000 0 12177322.689 -2482465.756 22329942.629 10 0 60990 24300.00000 0 11145595.411 107040.666 22991589.323 10 0 60990 25200.00000 0 10294592.361 2818668.246 23208981.043 10 0 60990 26100.00000 0 9648698.071 5586226.976 22977645.353 10 0 60990 27000.00000 0 9220288.093 8340193.817 22301741.837 10 0 60990 27900.00000 0 9009275.526 11010353.860 21194007.038 10 0 60990 28800.00000 0 9003192.721 13528483.891 19675537.890 10 0 60990 29700.00000 0 9177806.716 15830969.013 17775415.349 10 0 60990 30600.00000 0 9498245.048 17861244.748 15530172.765 10 0 60990 31500.00000 0 9920587.035 19571963.055 12983116.541 10 0 60990 32400.00000 0 10393855.817 20926791.128 10183509.638 10 0 60990 33300.00000 0 10862328.756 21901766.198 7185631.647 10 0 60990 34200.00000 0 11268069.445 22486147.423 4047732.229 10 0 60990 35100.00000 0 11553574.066 22682726.751 830897.580 10 0 60990 36000.00000 0 11664418.814 22507583.437 -2402147.876 10 0 60990 36900.00000 0 11551794.083 21989290.736 -5588280.164 10 0 60990 37800.00000 0 11174815.069 21167607.116 -8665228.985 10 0 60990 38700.00000 0 10502507.487 20091707.024 -11572818.748 10 0 60990 39600.00000 0 9515380.799 18818026.576 -14254170.589 10 0 60990 40500.00000 0 8206519.075 17407816.704 -16656839.252 10 0 60990 41400.00000 0 6582140.638 15924509.232 -18733860.149 10 0 60990 42300.00000 0 4661600.862 14431009.578 -20444684.059 10 0 60990 43200.00000 0 2476836.917 12987032.806 -21755979.658 10 0 60990 44100.00000 0 71277.556 11646597.511 -22642287.403 10 0 60990 45000.00000 0 -2501735.698 10455784.700 -23086511.769 10 0 60990 45900.00000 0 -5180948.651 9450856.700 -23080242.776 10 0 60990 46800.00000 0 -7899530.656 8656814.995 -22623901.595 10 0 60990 47700.00000 0 -10587647.790 8086456.419 -21726708.925 10 0 60990 48600.00000 0 -13175164.264 7739965.290 -20406478.631 10 0 60990 49500.00000 0 -15594358.634 7605055.847 -18689242.670 10 0 60990 50400.00000 0 -17782541.353 7657655.799 -16608716.683 10 0 60990 51300.00000 0 -19684465.237 7863098.919 -14205618.621 10 0 60990 52200.00000 0 -21254429.754 8177773.316 -11526855.395 10 0 60990 53100.00000 0 -22457993.498 8551153.264 -8624594.880 10 0 60990 54000.00000 0 -23273226.141 8928126.939 -5555242.394 10 0 60990 54900.00000 0 -23691450.655 9251520.637 -2378342.225 10 0 60990 55800.00000 0 -23717448.000 9464712.655 844574.172 10 0 60990 56700.00000 0 -23369118.730 9514226.939 4051171.227 10 0 60990 57600.00000 0 -22676618.292 9352198.191 7179501.295 10 0 60990 58500.00000 0 -21681004.112 8938606.030 10169183.711 10 0 60990 59400.00000 0 -20432452.215 8243185.786 12962549.586 10 0 60990 60300.00000 0 -18988118.172 7246937.105 15505732.067 10 0 60990 61200.00000 0 -17409731.201 5943168.190 17749683.010 10 0 60990 62100.00000 0 -15761020.524 4338032.391 19651098.576 10 0 60990 63000.00000 0 -14105079.467 2450534.407 21173237.919 10 0 60990 63900.00000 0 -12501775.004 312004.660 22286620.921 10 0 60990 64800.00000 0 -11005308.439 -2034938.312 22969592.872 10 0 60990 65700.00000 0 -9662026.824 -4537897.094 23208745.990 10 0 60990 66600.00000 0 -8508574.767 -7136616.830 22999189.753 10 0 60990 67500.00000 0 -7570462.795 -9765242.731 22344664.224 10 0 60990 68400.00000 0 -6861111.891 -12354823.473 21257492.864 10 0 60990 69300.00000 0 -6381414.835 -14835959.725 19758373.795 10 0 60990 70200.00000 0 -6119834.114 -17141490.309 17876011.117 10 0 60990 71100.00000 0 -6053034.220 -19209105.925 15646590.676 10 0 60990 72000.00000 0 -6147024.006 -20983782.168 13113107.655 10 0 60990 72900.00000 0 -6358763.203 -22419929.937 10324556.453 10 0 60990 73800.00000 0 -6638167.155 -23483172.004 7334996.373 10 0 60990 74700.00000 0 -6930426.268 -24151669.223 4202509.809 10 0 60990 75600.00000 0 -7178542.318 -24416938.251 988072.425 10 0 60990 76500.00000 0 -7325973.513 -24284123.814 -2245642.547 10 0 60990 77400.00000 0 -7319274.484 -23771711.700 -5435501.629 10 0 60990 78300.00000 0 -7110616.730 -22910692.866 -8519164.225 10 0 60990 79200.00000 0 -6660079.462 -21743212.941 -11436324.867 10 0 60990 80100.00000 0 -5937610.303 -20320764.131 -14129917.731 10 0 60990 81000.00000 0 -4924569.377 -18701996.701 -16547257.235 10 0 60990 81900.00000 0 -3614788.404 -16950244.023 -18641089.995 10 0 60990 82800.00000 0 -2015097.637 -15130867.792 -20370535.431 10 0 60990 83700.00000 0 -145296.833 -13308537.618 -21701895.125 10 0 60990 84600.00000 0 1962429.280 -11544561.827 -22609314.255 10 0 60990 85500.00000 0 4264626.302 -9894383.559 -23075281.954 10 0 60991 0.00000 0 6708168.386 -8405348.572 -23090961.332 10 0 60991 900.00000 0 9232272.452 -7114837.915 -22656343.702 10 0 60991 1800.00000 0 11770839.241 -6048844.945 -21780225.566 10 0 60991 2700.00000 0 14255026.249 -5221051.963 -20480010.707 10 0 60991 3600.00000 0 16615940.655 -4632444.588 -18781343.092 10 0 60991 4500.00000 0 18787340.485 -4271476.010 -16717579.930 10 0 60991 5400.00000 0 20708231.093 -4114770.757 -14329117.051 10 0 60991 6300.00000 0 22325249.427 -4128334.843 -11662581.537 10 0 60991 7200.00000 0 23594738.059 -4269218.063 -8769908.803 10 0 60991 8100.00000 0 24484424.563 -4487555.730 -5707323.213 10 0 60991 9000.00000 0 24974638.762 -4728901.822 -2534242.735 10 0 60991 9900.00000 0 25059019.845 -4936754.073 687870.785 10 0 60991 10800.00000 0 24744686.695 -5055164.266 3896693.626 10 0 60991 11700.00000 0 24051866.921 -5031324.212 7030232.273 10 0 60991 12600.00000 0 23013002.160 -4818019.523 10028003.545 10 0 60991 13500.00000 0 21671368.450 -4375849.393 12832181.481 10 0 60991 14400.00000 0 20079269.829 -3675120.530 15388690.659 10 0 60991 15300.00000 0 18295880.261 -2697337.083 17648226.835 10 0 60991 16200.00000 0 16384822.780 -1436224.924 19567187.329 10 0 60991 17100.00000 0 14411584.965 101752.399 21108495.251 10 0 60991 18000.00000 0 12440876.118 1897408.312 22242303.424 10 0 60991 18900.00000 0 10534033.717 3919379.376 22946565.796 10 0 60991 19800.00000 0 8746584.641 6125182.654 23207466.145 10 0 60991 20700.00000 0 7126060.624 8462743.317 23019695.940 10 0 60991 21600.00000 0 5710157.377 10872332.500 22386575.422 10 0 60991 22500.00000 0 4525313.307 13288838.507 21320014.293 10 0 60991 23400.00000 0 3585767.139 15644280.372 19840310.834 10 0 60991 24300.00000 0 2893134.642 17870462.173 17975790.946 10 0 60991 25200.00000 0 2436523.574 19901659.713 15762291.333 10 0 60991 26100.00000 0 2193183.937 21677228.679 13242494.083 10 0 60991 27000.00000 0 2129668.209 23144025.467 10465122.933 10 0 60991 27900.00000 0 2203454.545 24258538.402 7484014.606 10 0 60991 28800.00000 0 2364965.805 24988638.180 4357081.762 10 0 60991 29700.00000 0 2559899.732 25314871.554 1145186.935 10 0 60991 30600.00000 0 2731771.322 25231241.059 -2089050.535 10 0 60991 31500.00000 0 2824558.480 24745435.225 -5282490.399 10 0 60991 32400.00000 0 2785336.610 23878497.221 -8372724.462 10 0 60991 33300.00000 0 2566787.567 22663944.292 -11299319.981 10 0 60991 34200.00000 0 2129473.305 21146374.347 -14005026.612 10 0 60991 35100.00000 0 1443774.418 19379618.671 -16436920.714 10 0 60991 36000.00000 0 491408.292 17424519.674 -18547462.157 10 0 60991 36900.00000 0 -733540.048 15346429.075 -20295440.850 10 0 60991 37800.00000 0 -2224119.933 13212533.980 -21646792.913 10 0 60991 38700.00000 0 -3960572.013 11089125.530 -22575269.651 10 0 60991 39600.00000 0 -5910938.073 9038926.856 -23062945.999 10 0 60991 40500.00000 0 -8032197.529 7118593.864 -23100558.957 10 0 60991 41400.00000 0 -10271881.822 5376494.233 -22687670.439 10 0 60991 42300.00000 0 -12570097.491 3850857.320 -21832652.841 10 0 60991 43200.00000 0 -14861871.633 2568371.097 -20552499.441 10 0 60991 44100.00000 0 -17079720.183 1543282.526 -18872465.340 10 0 60991 45000.00000 0 -19156330.533 777036.026 -16825547.984 10 0 60991 45900.00000 0 -21027245.921 258461.546 -14451819.398 10 0 60991 46800.00000 0 -22633439.583 -35499.489 -11797624.850 10 0 60991 47700.00000 0 -23923672.029 -138564.531 -8914665.104 10 0 60991 48600.00000 0 -24856534.496 -93431.633 -5858981.238 10 0 60991 49500.00000 0 -25402095.332 50274.195 -2689862.472 10 0 60991 50400.00000 0 -25543082.925 238341.632 531301.441 10 0 60991 51300.00000 0 -25275558.418 414501.149 3742201.181 10 0 60991 52200.00000 0 -24609052.509 523033.942 6880799.964 10 0 60991 53100.00000 0 -23566162.818 511352.465 9886514.725 10 0 60991 54000.00000 0 -22181630.121 332445.142 12701365.070 10 0 60991 54900.00000 0 -20500932.808 -52916.082 15271069.599 10 0 60991 55800.00000 0 -18578458.142 -674296.573 17546070.438 10 0 60991 56700.00000 0 -16475325.639 -1550125.877 19482468.348 10 0 60991 57600.00000 0 -14256951.528 -2686691.680 21042852.407 10 0 60991 58500.00000 0 -11990453.436 -4077643.036 22197010.058 10 0 60991 59400.00000 0 -9742000.587 -5704024.624 22922505.221 10 0 60991 60300.00000 0 -7574217.001 -7534842.424 23205114.162 10 0 60991 61200.00000 0 -5543743.151 -9528139.926 23039110.888 10 0 60991 62100.00000 0 -3699055.417 -11632543.282 22427396.002 10 0 60991 63000.00000 0 -2078632.686 -13789214.669 21381465.291 10 0 60991 63900.00000 0 -709545.881 -15934136.063 19921216.726 10 0 60991 64800.00000 0 393470.521 -18000631.557 18074597.237 10 0 60991 65700.00000 0 1228425.262 -19922025.602 15877093.325 10 0 60991 66600.00000 0 1805936.779 -21634327.857 13371072.643 10 0 60991 67500.00000 0 2148563.174 -23078832.986 10604986.661 10 0 60991 68400.00000 0 2289622.047 -24204526.068 7632447.678 10 0 60991 69300.00000 0 2271548.334 -24970191.137 4511196.566 10 0 60991 70200.00000 0 2143858.598 -25346131.958 1301980.493 10 0 60991 71100.00000 0 1960807.678 -25315429.793 -1932637.488 10 0 60991 72000.00000 0 1778837.709 -24874682.113 -5129512.891 10 0 60991 72900.00000 0 1653929.303 -24034188.338 -8226172.589 10 0 60991 73800.00000 0 1638969.701 -22817572.454 -11162059.340 10 0 60991 74700.00000 0 1781252.520 -21260856.953 -13879741.139 10 0 60991 75600.00000 0 2120218.406 -19411026.571 -16326059.152 10 0 60991 76500.00000 0 2685535.581 -17324142.716 -18453189.314 10 0 60991 77400.00000 0 3495604.392 -15063089.199 -20219594.657 10 0 60991 78300.00000 0 4556551.339 -12695045.862 -21590848.211 10 0 60991 79200.00000 0 5861756.557 -10288798.312 -22540309.430 10 0 60991 80100.00000 0 7391935.226 -7911998.714 -23049640.652 10 0 60991 81000.00000 0 9115769.275 -5628494.086 -23109153.942 10 0 60991 81900.00000 0 10991061.880 -3495834.938 -22717982.523 10 0 60991 82800.00000 0 12966364.823 -1563068.650 -21884074.923 10 0 60991 83700.00000 0 14983008.743 131091.026 -20624013.765 10 0 60991 84600.00000 0 16977449.519 1559643.681 -18962664.701 10 0 60991 85500.00000 0 18883831.002 2708176.154 -16932664.448 99